Time,TemperatureF,DewpointF,PressureIn,WindDirection,WindDirectionDegrees,WindSpeedMPH,WindSpeedGustMPH,Humidity,HourlyPrecipIn,Conditions,Clouds,dailyrainin,SoftwareType,DateUTC
2013-08-25 00:18:00,57.4,57.4,30.35,ENE,76,0.0,0.0,100,0.00,,CLR,0.00,VWS V14.00,2013-08-25 04:18:00,
2013-08-25 00:38:00,56.9,56.9,30.34,ENE,76,0.0,0.0,100,0.00,,CLR,0.00,VWS V14.00,2013-08-25 04:38:00,
2013-08-25 00:58:00,56.3,56.3,30.34,ENE,76,0.0,0.0,100,0.00,,CLR,0.00,VWS V14.00,2013-08-25 04:58:00,
2013-08-25 01:18:00,57.0,57.0,30.35,ENE,76,0.0,0.0,100,0.00,,CLR,0.00,VWS V14.00,2013-08-25 05:18:00,
2013-08-25 01:38:00,57.8,57.8,30.34,ENE,76,0.0,0.0,100,0.00,,CLR,0.00,VWS V14.00,2013-08-25 05:38:00,
2013-08-25 01:58:00,56.2,56.2,30.34,ENE,76,0.0,0.0,100,0.00,,CLR,0.00,VWS V14.00,2013-08-25 05:58:00,
2013-08-25 02:18:00,57.7,57.7,30.35,ENE,76,0.0,0.0,100,0.00,,CLR,0.00,VWS V14.00,2013-08-25 06:18:00,
2013-08-25 02:38:00,55.7,55.7,30.33,ENE,76,0.0,0.0,100,0.00,,CLR,0.00,VWS V14.00,2013-08-25 06:38:00,
2013-08-25 02:58:00,56.4,56.4,30.33,ENE,76,0.0,0.0,100,0.00,,CLR,0.00,VWS V14.00,2013-08-25 06:58:00,
2013-08-25 03:18:00,54.9,54.9,30.33,ENE,76,0.0,0.0,100,0.00,,CLR,0.00,VWS V14.00,2013-08-25 07:18:00,
2013-08-25 03:38:00,53.7,53.7,30.34,ENE,76,0.0,0.0,100,0.00,,CLR,0.00,VWS V14.00,2013-08-25 07:38:00,
2013-08-25 03:58:00,53.8,53.8,30.34,ENE,76,0.0,0.0,100,0.00,,CLR,0.00,VWS V14.00,2013-08-25 07:58:00,
2013-08-25 04:18:00,53.4,53.4,30.35,ENE,76,0.0,0.0,100,0.00,,CLR,0.00,VWS V14.00,2013-08-25 08:18:00,
2013-08-25 04:38:00,53.2,53.2,30.36,ENE,76,0.0,0.0,100,0.00,,CLR,0.00,VWS V14.00,2013-08-25 08:38:00,
2013-08-25 04:58:00,54.7,54.7,30.36,ENE,76,0.0,0.0,100,0.00,,CLR,0.00,VWS V14.00,2013-08-25 08:58:00,
2013-08-25 05:18:00,53.5,53.5,30.37,ENE,76,0.0,0.0,100,0.00,,CLR,0.00,VWS V14.00,2013-08-25 09:18:00,
2013-08-25 05:38:00,52.7,52.7,30.37,ENE,76,0.0,0.0,100,0.00,,CLR,0.00,VWS V14.00,2013-08-25 09:38:00,
2013-08-25 05:58:00,54.1,54.1,30.38,ENE,76,0.0,0.0,100,0.00,,SCT040,0.00,VWS V14.00,2013-08-25 09:58:00,
2013-08-25 06:18:00,52.2,52.2,30.39,ENE,76,0.0,0.0,100,0.00,,SCT040,0.00,VWS V14.00,2013-08-25 10:18:00,
2013-08-25 06:38:00,50.3,50.3,30.40,ENE,76,0.0,0.0,100,0.00,,SCT040,0.00,VWS V14.00,2013-08-25 10:38:00,
2013-08-25 06:58:00,54.6,54.6,30.40,ENE,76,0.0,0.0,100,0.00,,SCT250,0.00,VWS V14.00,2013-08-25 10:58:00,
2013-08-25 07:18:00,52.1,52.1,30.40,ENE,76,0.0,0.0,100,0.00,,SCT250,0.00,VWS V14.00,2013-08-25 11:18:00,
2013-08-25 07:38:00,53.6,53.6,30.41,ENE,76,0.0,0.0,100,0.00,,SCT250,0.00,VWS V14.00,2013-08-25 11:38:00,
2013-08-25 07:58:00,53.5,53.5,30.41,ENE,76,0.0,0.0,100,0.00,,BKN250,0.00,VWS V14.00,2013-08-25 11:58:00,
2013-08-25 08:18:00,56.1,56.1,30.42,ENE,76,0.0,0.0,100,0.00,,BKN250,0.00,VWS V14.00,2013-08-25 12:18:00,
2013-08-25 08:38:00,58.4,58.4,30.42,ENE,76,0.0,0.0,100,0.00,,BKN250,0.00,VWS V14.00,2013-08-25 12:38:00,
2013-08-25 08:58:00,60.3,60.3,30.41,ENE,76,0.0,0.0,100,0.00,,BKN250,0.00,VWS V14.00,2013-08-25 12:58:00,
2013-08-25 09:18:00,61.6,61.6,30.42,ENE,76,0.0,0.0,100,0.00,,BKN250,0.00,VWS V14.00,2013-08-25 13:18:00,
2013-08-25 09:38:00,62.1,62.1,30.41,NE,42,3.5,5.7,100,0.00,,BKN250,0.00,VWS V14.00,2013-08-25 13:38:00,
2013-08-25 09:58:00,65.8,65.1,30.41,East,84,3.4,6.8,98,0.00,,SCT250,0.00,VWS V14.00,2013-08-25 13:58:00,
2013-08-25 10:18:00,66.0,62.3,30.41,SE,127,0.0,6.6,88,0.00,,SCT250,0.00,VWS V14.00,2013-08-25 14:18:00,
2013-08-25 10:38:00,68.7,61.7,30.42,East,84,0.0,8.8,78,0.00,,SCT250,0.00,VWS V14.00,2013-08-25 14:38:00,
2013-08-25 10:58:00,69.9,57.3,30.41,ESE,117,4.2,9.1,64,0.00,,SCT250,0.00,VWS V14.00,2013-08-25 14:58:00,
2013-08-25 11:18:00,70.1,54.6,30.41,ENE,75,6.0,8.9,58,0.00,,SCT250,0.00,VWS V14.00,2013-08-25 15:18:00,
2013-08-25 11:38:00,70.5,54.8,30.40,SE,141,4.7,9.6,58,0.00,,SCT250,0.00,VWS V14.00,2013-08-25 15:38:00,
2013-08-25 11:58:00,72.3,55.5,30.39,East,96,9.7,10.2,55,0.00,,SCT250,0.00,VWS V14.00,2013-08-25 15:58:00,
2013-08-25 12:18:00,72.5,54.0,30.39,NNE,31,3.1,9.9,52,0.00,,SCT250,0.00,VWS V14.00,2013-08-25 16:18:00,
2013-08-25 12:38:00,73.8,53.3,30.39,NNE,31,0.0,10.5,49,0.00,,SCT250,0.00,VWS V14.00,2013-08-25 16:38:00,
2013-08-25 12:58:00,74.1,53.4,30.38,East,86,0.0,9.4,48,0.00,,BKN250,0.00,VWS V14.00,2013-08-25 16:58:00,
2013-08-25 13:18:00,74.2,52.8,30.38,South,181,7.0,9.7,47,0.00,,BKN250,0.00,VWS V14.00,2013-08-25 17:18:00,
2013-08-25 13:38:00,74.4,52.2,30.37,SSE,150,6.2,9.7,46,0.00,,BKN250,0.00,VWS V14.00,2013-08-25 17:38:00,
2013-08-25 13:58:00,75.5,52.0,30.37,ESE,104,5.5,9.9,44,0.00,,BKN250,0.00,VWS V14.00,2013-08-25 17:58:00,
2013-08-25 14:18:00,76.9,52.1,30.36,SSE,165,0.0,9.8,42,0.00,,BKN250,0.00,VWS V14.00,2013-08-25 18:18:00,
2013-08-25 14:38:00,77.4,51.3,30.36,South,169,9.2,11.4,40,0.00,,BKN250,0.00,VWS V14.00,2013-08-25 18:38:00,
2013-08-25 14:58:00,76.6,50.9,30.34,ESE,112,6.6,12.9,41,0.00,,BKN250,0.00,VWS V14.00,2013-08-25 18:58:00,
2013-08-25 15:18:00,76.0,50.6,30.34,SSW,210,3.3,10.1,41,0.00,,BKN250,0.00,VWS V14.00,2013-08-25 19:18:00,
2013-08-25 15:38:00,77.2,50.9,30.33,SE,139,6.5,9.6,40,0.00,,BKN250,0.00,VWS V14.00,2013-08-25 19:38:00,
2013-08-25 15:58:00,77.0,50.5,30.33,SE,135,5.0,11.4,39,0.00,,SCT250,0.00,VWS V14.00,2013-08-25 19:58:00,
2013-08-25 16:18:00,76.2,48.6,30.33,East,93,5.2,11.5,38,0.00,,SCT250,0.00,VWS V14.00,2013-08-25 20:18:00,
2013-08-25 16:38:00,77.5,49.3,30.32,ESE,105,7.1,13.4,37,0.00,,SCT250,0.00,VWS V14.00,2013-08-25 20:38:00,
2013-08-25 16:58:00,76.2,47.4,30.31,South,172,7.7,11.7,36,0.00,,SCT250,0.00,VWS V14.00,2013-08-25 20:58:00,
2013-08-25 17:18:00,76.8,48.5,30.31,SSE,150,8.3,11.8,37,0.00,,SCT250,0.00,VWS V14.00,2013-08-25 21:18:00,
2013-08-25 17:38:00,75.7,49.5,30.31,South,170,9.0,11.9,40,0.00,,SCT250,0.00,VWS V14.00,2013-08-25 21:38:00,
2013-08-25 17:58:00,72.5,49.5,30.30,SE,129,6.1,13.4,44,0.00,,BKN250,0.00,VWS V14.00,2013-08-25 21:58:00,
2013-08-25 18:18:00,71.5,49.5,30.30,SW,224,5.5,11.6,46,0.00,,BKN250,0.00,VWS V14.00,2013-08-25 22:18:00,
2013-08-25 18:38:00,68.7,47.6,30.29,SE,143,5.3,10.8,47,0.00,,BKN250,0.00,VWS V14.00,2013-08-25 22:38:00,
2013-08-25 18:58:00,68.1,47.1,30.29,ESE,120,4.5,9.7,47,0.00,,SCT250,0.00,VWS V14.00,2013-08-25 22:58:00,
2013-08-25 19:18:00,68.6,47.8,30.29,ESE,120,0.0,7.7,47,0.00,,SCT250,0.00,VWS V14.00,2013-08-25 23:18:00,
2013-08-25 19:38:00,67.1,50.6,30.29,East,101,0.0,6.0,55,0.00,,SCT250,0.00,VWS V14.00,2013-08-25 23:38:00,
2013-08-25 19:58:00,64.8,51.9,30.28,East,101,0.0,0.0,63,0.00,,BKN250,0.00,VWS V14.00,2013-08-25 23:58:00,
2013-08-25 20:18:00,62.0,52.0,30.28,East,101,0.0,0.0,70,0.00,,BKN250,0.00,VWS V14.00,2013-08-26 00:18:00,
2013-08-25 20:38:00,61.7,54.1,30.29,East,101,0.0,0.0,76,0.00,,BKN250,0.00,VWS V14.00,2013-08-26 00:38:00,
2013-08-25 20:58:00,62.1,56.2,30.29,East,101,0.0,0.0,81,0.00,,BKN250,0.00,VWS V14.00,2013-08-26 00:58:00,
2013-08-25 21:18:00,60.2,55.9,30.29,East,93,0.0,6.0,86,0.00,,BKN250,0.00,VWS V14.00,2013-08-26 01:18:00,
2013-08-25 21:38:00,58.5,55.4,30.30,South,173,0.0,4.7,89,0.00,,BKN250,0.00,VWS V14.00,2013-08-26 01:38:00,
2013-08-25 21:58:00,59.7,57.2,30.29,SE,135,0.0,4.3,91,0.00,,BKN250,0.00,VWS V14.00,2013-08-26 01:58:00,
2013-08-25 22:18:00,59.1,57.1,30.30,ESE,115,0.0,2.8,93,0.00,,BKN250,0.00,VWS V14.00,2013-08-26 02:18:00,
2013-08-25 22:38:00,57.9,56.4,30.30,ESE,115,0.0,0.0,95,0.00,,BKN250,0.00,VWS V14.00,2013-08-26 02:38:00,
2013-08-25 22:58:00,56.7,55.7,30.31,ESE,115,0.0,0.0,96,0.00,,BKN250,0.00,VWS V14.00,2013-08-26 02:58:00,
2013-08-25 23:18:00,57.1,56.4,30.30,ESE,115,0.0,0.0,98,0.00,,BKN250,0.00,VWS V14.00,2013-08-26 03:18:00,
2013-08-25 23:38:00,56.6,56.3,30.30,ESE,115,0.0,0.0,99,0.00,,BKN250,0.00,VWS V14.00,2013-08-26 03:38:00,